Regional Weather Roundup
Issued by NWS Upton, NY

Current Version | Previous Version | Graphics & Text | Print | Product List | Glossary Off
Versions: 1 2 3 4 5 6 7 8 9 10 11 12 13 14 15 16 17 18 19 20 21 22 23 24 25 26 27 28 29 30 31 32 33 34 35 36 37 38 39 40 41 42 43 44 45 46 47 48 49 50

000
ASUS41 KOKX 020208
RWROKX

REGIONAL WEATHER ROUNDUP
NATIONAL WEATHER SERVICE NEW YORK NY
1000 PM EDT MON JUN 01 2015

NOTE: "FAIR" INDICATES FEW OR NO CLOUDS BELOW 12,000 FEET WITH NO
SIGNIFICANT WEATHER AND/OR OBSTRUCTIONS TO VISIBILITY.

NYZ071-072-176-178-NJZ106-104-020300-
NEW YORK CITY METRO AREA


CITY           SKY/WX    TMP DP  RH WIND       PRES   REMARKS
CENTRAL PARK   CLOUDY    54  51  90 E9G16     30.18R FOG
LAGUARDIA APRT DRIZZLE   53  51  93 NE20      30.15R FOG
KENNEDY INTL   LGT RAIN  54  51  90 NE10      30.16R FOG
NEWARK/LIBERTY LGT RAIN  54  53  94 E13G23    30.14S FOG
BRNX BOT. GARD   N/A     52  50  93 NE8       30.15F
TETERBORO      LGT RAIN  54  50  87 NE6       30.15S
$$

NYZ177-179-078>081-020300-
LONG ISLAND NEW YORK

CITY           SKY/WX    TMP DP  RH WIND       PRES   REMARKS
FARMINGDALE    CLOUDY    52  50  93 NE9       30.15R FOG
ISLIP          DRIZZLE   51  49  92 NE9       30.13R FOG
SHIRLEY        CLOUDY    51  49  92 NE8       30.15S FOG
WESTHAMPTON    CLOUDY    51  49  92 NE12G20   30.17R
MONTAUK POINT    N/A     51  48  89 NE12G23   30.19R
$$

NYZ052-065-067-020300-
HUDSON VALLEY

CITY           SKY/WX    TMP DP  RH WIND       PRES   REMARKS
WHITE PLAINS   RAIN      50  48  93 NE8       30.16R FOG
NEWBURGH       LGT RAIN  50  50 100 E12       30.19R FOG
MONTGOMERY     LGT RAIN  51  50  96 NE10      30.17S
POUGHKEEPSIE   HVY RAIN  50  48  93 NE7       30.19R FOG
ALBANY         DRIZZLE   53  48  83 CALM      30.21R
$$

NJZ001-105-106-008-010-013-015-019>022-104-020300-
NEW JERSEY

CITY           SKY/WX    TMP DP  RH WIND       PRES   REMARKS
NEWARK/LIBERTY LGT RAIN  54  53  94 E13G23    30.14S FOG
TETERBORO      LGT RAIN  54  50  87 NE6       30.15S
CALDWELL       CLOUDY    53  50  89 E10       30.15S FOG
MORRISTOWN     LGT RAIN  59  59 100 NE10      30.15S FOG
SOMERVILLE     CLOUDY    56  52  86 NE8       30.11R
SUSSEX         LGT RAIN  52  49  89 NE8       30.16R
ANDOVER          N/A     53  52  96 VRB5      30.14S
TRENTON        LGT RAIN  57  55  93 E14       30.09S
MILLVILLE      TSTM      64  63  96 NE6       30.06R FOG
ATLANTIC CITY  LGT RAIN  60  59  96 E6        30.07F FOG
WRIGHTSTOWN    LGT RAIN  56  55  99 NE17      30.05F FOG
TOMS RIVER     CLOUDY   N/A N/A N/A NE15      30.10S THUNDER
BELMAR         CLOUDY    54  48  82 NE10G17   30.13R
$$

PAZ047>061-062-071-020300-
EASTERN PENNSYLVANIA

CITY           SKY/WX    TMP DP  RH WIND       PRES   REMARKS
PHILADELPHIA   LGT RAIN  60  57  89 NE12G22   30.10R
ALLENTOWN      LGT RAIN  56  54  93 NE8       30.11S
SCRANTON       CLOUDY    56  51  84 E6        30.12R
$$

CTZ002-004>006-009-010-012-RIZ004-006-007-MAZ004-011-015-020300-
SOUTHERN NEW ENGLAND
 IN CT

CITY           SKY/WX    TMP DP  RH WIND       PRES   REMARKS
BRADLEY INTL   RAIN      48  45  89 N10       30.22R
HARTFORD       CLOUDY    48  46  93 N10       30.21S FOG
DANBURY        LGT RAIN  48  44  86 NE12      30.19R
WTRBRY/OXFORD  CLOUDY    46  39  76 NE13G23   30.18R
BRIDGEPORT     LGT RAIN  51  48  89 NE14      30.18R FOG
MERIDEN        LGT RAIN  49  45  86 NE7G16    30.19S FOG
NEW HAVEN      LGT RAIN  49  47  93 N12       30.18R
CHESTER        HVY RAIN  46  46 100 NE8       30.18S
GROTON         LGT RAIN  49  46  90 NE10      30.17S
WILLIMANTIC    CLOUDY    48  45  89 NE9       30.21R

 IN RI

CITY           SKY/WX    TMP DP  RH WIND       PRES   REMARKS
PROVIDENCE     LGT RAIN  48  46  93 N12       30.22R
BLOCK ISLAND   CLOUDY    50  45  81 NE15G26   30.17S
WESTERLY       LGT RAIN  48  46  93 N9G20     30.17S FOG

 IN MA

CITY           SKY/WX    TMP DP  RH WIND       PRES   REMARKS
BOSTON         CLOUDY    47  46  97 NE15      30.26S FOG
WORCESTER      LGT RAIN  45  42  89 NE16G24   30.22S
WESTFIELD      LGT RAIN  48  45  89 N8        30.24R FOG
PROVINCETOWN   CLOUDY    48  45  87 NE15      30.22R
NANTUCKET      LGT RAIN  53  51  93 NE14      30.16R FOG
$$

ANZ330-335-338-340-345-350-353-355-020300-
COASTAL MARINE OBSERVATIONS


STATION/POSITION TIME  SKY/WX   TEMP    WIND        PRES    VSBY  WAVE
                                AIR SEA DIR/SP/G                  HT/PER
                 (UTC)          (F)     (DEG/KT/KT) (MB)    (MI)  (FT/S)
NY HARB ENTRANCE 0150            54 60   60/ 21/ 27 1019.3          6/ 6
4S FIRE IS       0103               54                N/A           6/ 6
20S FIRE ISLAND  0150            55 59   60/ 25/ 29 1018.6          7/ 7
GREAT SOUTH BAY  0100            54 68   40/ 14/ 21   N/A
23SW MTP         0150            53 56   60/ 19/ 25 1020.4          7/ 7
HUDSON CANYON    NOT AVBL
KINGS POINT      0100            53 56   30/  4/  7 1019.9
CENTRAL LI SOUND 0130            51 56   70/ 16/ 19   N/A
EASTERN LI SOUND 0100            50      40/ 16/ 19   N/A
ROBBINS REEF     0100            54      40/ 14/ 16 1019.4
$$


>>>>>>>>>>>>>>>>>>>>>>>>>>>> KEY <<<<<<<<<<<<<<<<<<<<<<<<<<<
>                                                          <
>     SKY/WX - SKY CONDITION/PRESENT WEATHER               <
>     TMP    - TEMPERATURE IN FAHRENHEIT                   <
>     DP     - DEWPOINT IN FAHRENHEIT                      <
>     RH     - RELATIVE HUMIDITY IN PERCENT                <
>     WIND   - DIRECTION AND SPEED IN MPH                  <
>     PRES   - MEAN SEA LEVEL PRESSURE IN INCHES OF HG     <
>     WCI    - WIND CHILL INDEX                            <
>     VSB    - VISIBILITY IN MILES                         <
>     HX     - HEAT INDEX                                  <
>     TC     - TEMPERATURE IN CELSIUS                      <
>     VRB    - VARIABLE WIND DIRECTION                     <
>                                                          <
>>>>>>>>>>>>>>>>>>>>>>>>>>>> KEY <<<<<<<<<<<<<<<<<<<<<<<<<<<





USA.gov is the U.S. government's official web portal to all federal, state and local government web resources and services.